CTV434 WARR-WALL

Flight info

Callsign CTV434
Flight time 1h 12m
Altitude 35000
Route RAMPY T13 IKAPI T11 KAYAN
Aircraft A320/M-SDE3FGHIRWY/LB1

Departure

Time 2026-05-08 13:24
Airport Juanda International Airport (WARR)

Arrival

Time 2026-05-08 14:36
Airport Sultan Aji Muhammad Sulaiman Sepinggan International Airport (WALL)
Time Latitude Longitude Altitude Speed Heading
2026-05-08 12:57 -7.37643 112.79814 0 ft 0 kts
2026-05-08 13:11 -7.37652 112.79812 10 ft 4 kts
2026-05-08 13:11 -7.37679 112.79808 12 ft 4 kts
2026-05-08 13:11 -7.37701 112.79804 9 ft 4 kts
2026-05-08 13:11 -7.37726 112.79806 10 ft 4 kts 323°
2026-05-08 13:12 -7.37739 112.79824 10 ft 1 kts 279°
2026-05-08 13:12 -7.37739 112.79825 10 ft 0 kts 279°
2026-05-08 13:15 -7.37745 112.79816 10 ft 2 kts 219°
2026-05-08 13:15 -7.37784 112.79809 11 ft 8 kts 189°
2026-05-08 13:15 -7.37846 112.79799 9 ft 10 kts 189°
2026-05-08 13:16 -7.37906 112.79789 9 ft 8 kts 189°
2026-05-08 13:16 -7.37955 112.79773 10 ft 7 kts 215°
2026-05-08 13:16 -7.37975 112.79729 9 ft 7 kts 268°
2026-05-08 13:16 -7.37967 112.79675 9 ft 10 kts 279°
2026-05-08 13:17 -7.37955 112.79596 9 ft 13 kts 279°
2026-05-08 13:17 -7.37939 112.79503 9 ft 13 kts 279°
2026-05-08 13:17 -7.37924 112.79408 9 ft 17 kts 279°
2026-05-08 13:17 -7.37905 112.79293 10 ft 16 kts 279°
2026-05-08 13:18 -7.37887 112.79179 9 ft 18 kts 279°
2026-05-08 13:18 -7.37868 112.79060 9 ft 16 kts 279°
2026-05-08 13:18 -7.37851 112.78954 9 ft 14 kts 279°
2026-05-08 13:18 -7.37835 112.78853 10 ft 16 kts 279°
2026-05-08 13:19 -7.37814 112.78728 9 ft 18 kts 279°
2026-05-08 13:19 -7.37794 112.78603 9 ft 18 kts 279°
2026-05-08 13:19 -7.37774 112.78481 9 ft 19 kts 279°
2026-05-08 13:19 -7.37754 112.78355 9 ft 18 kts 279°
2026-05-08 13:20 -7.37735 112.78236 9 ft 16 kts 279°
2026-05-08 13:20 -7.37718 112.78128 10 ft 17 kts 279°
2026-05-08 13:20 -7.37697 112.78002 9 ft 18 kts 279°
2026-05-08 13:20 -7.37677 112.77877 9 ft 19 kts 279°
2026-05-08 13:21 -7.37654 112.77737 9 ft 21 kts 279°
2026-05-08 13:21 -7.37631 112.77592 9 ft 21 kts 279°
2026-05-08 13:21 -7.37609 112.77458 9 ft 11 kts 279°
2026-05-08 13:21 -7.37622 112.77401 10 ft 8 kts 233°
2026-05-08 13:22 -7.37667 112.77381 8 ft 7 kts 188°
2026-05-08 13:22 -7.37714 112.77374 8 ft 7 kts 188°
2026-05-08 13:22 -7.37757 112.77367 10 ft 5 kts 187°
2026-05-08 13:22 -7.37772 112.77379 9 ft 1 kts 115°
2026-05-08 13:23 -7.37776 112.77408 9 ft 15 kts 98°
2026-05-08 13:23 -7.37833 112.77764 9 ft 86 kts 99°
2026-05-08 13:23 -7.37961 112.78556 9 ft 142 kts 99°
2026-05-08 13:23 -7.38141 112.79673 197 ft 170 kts 99°
2026-05-08 13:24 -7.38333 112.80845 905 ft 170 kts 99°
2026-05-08 13:24 -7.38543 112.82028 1440 ft 184 kts 100°
2026-05-08 13:24 -7.38779 112.83391 1768 ft 205 kts 99°
2026-05-08 13:24 -7.39018 112.84880 2074 ft 226 kts 98°
2026-05-08 13:25 -7.39267 112.86527 2428 ft 249 kts 95°
2026-05-08 13:25 -7.39072 112.88287 3024 ft 261 kts 69°
2026-05-08 13:25 -7.38017 112.89789 3716 ft 269 kts 39°
2026-05-08 13:25 -7.36334 112.90645 4483 ft 275 kts 20°
2026-05-08 13:26 -7.34520 112.91284 5294 ft 278 kts 19°
2026-05-08 13:26 -7.32681 112.91916 6087 ft 281 kts 19°
2026-05-08 13:26 -7.30843 112.92546 6865 ft 284 kts 19°
2026-05-08 13:26 -7.28961 112.93194 7626 ft 288 kts 19°
2026-05-08 13:27 -7.27054 112.93855 8376 ft 291 kts 20°
2026-05-08 13:27 -7.25131 112.94527 9115 ft 294 kts 20°
2026-05-08 13:27 -7.23186 112.95208 9828 ft 298 kts 20°
2026-05-08 13:27 -7.21203 112.95904 10322 ft 311 kts 20°
2026-05-08 13:28 -7.19092 112.96668 10494 ft 333 kts 21°
2026-05-08 13:28 -7.16895 112.97534 10951 ft 344 kts 22°
2026-05-08 13:28 -7.14660 112.98449 11586 ft 349 kts 23°
2026-05-08 13:28 -7.12403 112.99384 12235 ft 352 kts 22°
2026-05-08 13:29 -7.10897 113.00007 12654 ft 355 kts 22°
2026-05-08 13:29 -7.08602 113.00950 13284 ft 358 kts 22°
2026-05-08 13:29 -7.06281 113.01894 13896 ft 361 kts 22°
2026-05-08 13:29 -7.03938 113.02840 14487 ft 365 kts 21°
2026-05-08 13:30 -7.01572 113.03794 15072 ft 368 kts 21°
2026-05-08 13:30 -6.99183 113.04757 15637 ft 371 kts 21°
2026-05-08 13:30 -6.96779 113.05724 16177 ft 374 kts 22°
2026-05-08 13:30 -6.94354 113.06701 16719 ft 377 kts 22°
2026-05-08 13:31 -6.91923 113.07680 17361 ft 372 kts 21°
2026-05-08 13:31 -6.89549 113.08636 17919 ft 365 kts 21°
2026-05-08 13:31 -6.87188 113.09587 18503 ft 366 kts 21°
2026-05-08 13:31 -6.84822 113.10542 19066 ft 367 kts 21°
2026-05-08 13:32 -6.82486 113.11487 19646 ft 367 kts 22°
2026-05-08 13:32 -6.80086 113.12458 20231 ft 367 kts 22°
2026-05-08 13:32 -6.77714 113.13414 20808 ft 367 kts 22°
2026-05-08 13:32 -6.75344 113.14371 21385 ft 366 kts 22°
2026-05-08 13:33 -6.72966 113.15328 21725 ft 374 kts 22°
2026-05-08 13:33 -6.70545 113.16303 21854 ft 386 kts 22°
2026-05-08 13:33 -6.68016 113.17322 21990 ft 398 kts 22°
2026-05-08 13:33 -6.65420 113.18368 22217 ft 406 kts 22°
2026-05-08 13:34 -6.62781 113.19431 22610 ft 410 kts 22°
2026-05-08 13:34 -6.60123 113.20499 23035 ft 413 kts 22°
2026-05-08 13:34 -6.57446 113.21570 23452 ft 415 kts 22°
2026-05-08 13:34 -6.54753 113.22649 23852 ft 417 kts 22°
2026-05-08 13:35 -6.52053 113.23735 24250 ft 420 kts 22°
2026-05-08 13:35 -6.49335 113.24834 24614 ft 422 kts 22°
2026-05-08 13:35 -6.46598 113.25938 24960 ft 425 kts 22°
2026-05-08 13:35 -6.43845 113.27047 25289 ft 428 kts 22°
2026-05-08 13:36 -6.41071 113.28163 25606 ft 431 kts 22°
2026-05-08 13:36 -6.38277 113.29285 25921 ft 434 kts 22°
2026-05-08 13:36 -6.35465 113.30412 26230 ft 436 kts 22°
2026-05-08 13:36 -6.32640 113.31548 26530 ft 439 kts 22°
2026-05-08 13:37 -6.29794 113.32690 26819 ft 441 kts 22°
2026-05-08 13:37 -6.26937 113.33835 27107 ft 443 kts 22°
2026-05-08 13:37 -6.24113 113.34986 27401 ft 445 kts 23°
2026-05-08 13:37 -6.21247 113.36275 27691 ft 447 kts 25°
2026-05-08 13:38 -6.18443 113.37643 27964 ft 449 kts 26°
2026-05-08 13:38 -6.15650 113.39063 28234 ft 451 kts 27°
2026-05-08 13:38 -6.12855 113.40500 28497 ft 452 kts 27°
2026-05-08 13:38 -6.10040 113.41933 28757 ft 454 kts 26°
2026-05-08 13:39 -6.07207 113.43348 29010 ft 456 kts 26°
2026-05-08 13:39 -6.04353 113.44749 29262 ft 457 kts 26°
2026-05-08 13:39 -6.01529 113.46118 29518 ft 458 kts 25°
2026-05-08 13:39 -5.98645 113.47508 29761 ft 460 kts 25°
2026-05-08 13:40 -5.95762 113.48901 29984 ft 461 kts 25°
2026-05-08 13:40 -5.92870 113.50306 30204 ft 463 kts 26°
2026-05-08 13:40 -5.89969 113.51723 30413 ft 464 kts 26°
2026-05-08 13:40 -5.87063 113.53144 30609 ft 466 kts 26°
2026-05-08 13:41 -5.84144 113.54568 30805 ft 467 kts 26°
2026-05-08 13:41 -5.81215 113.55998 30991 ft 469 kts 26°
2026-05-08 13:41 -5.78286 113.57429 31243 ft 468 kts 26°
2026-05-08 13:41 -5.75359 113.58855 31514 ft 467 kts 26°
2026-05-08 13:42 -5.72433 113.60284 31751 ft 468 kts 26°
2026-05-08 13:42 -5.69505 113.61719 31970 ft 468 kts 26°
2026-05-08 13:42 -5.66576 113.63151 32221 ft 468 kts 26°
2026-05-08 13:42 -5.63648 113.64576 32483 ft 467 kts 26°
2026-05-08 13:43 -5.60727 113.65997 32751 ft 466 kts 26°
2026-05-08 13:43 -5.57811 113.67415 33029 ft 465 kts 26°
2026-05-08 13:43 -5.54900 113.68829 33322 ft 464 kts 26°
2026-05-08 13:43 -5.52003 113.70238 33610 ft 462 kts 26°
2026-05-08 13:44 -5.49111 113.71647 33895 ft 461 kts 26°
2026-05-08 13:44 -5.46232 113.73050 34147 ft 460 kts 26°
2026-05-08 13:44 -5.43360 113.74449 34377 ft 459 kts 26°
2026-05-08 13:44 -5.40482 113.75850 34583 ft 459 kts 26°
2026-05-08 13:45 -5.37651 113.77232 34771 ft 459 kts 26°
2026-05-08 13:45 -5.34774 113.78633 34876 ft 458 kts 26°
2026-05-08 13:45 -5.29084 113.81403 34892 ft 453 kts 26°
2026-05-08 13:46 -5.23422 113.84161 34893 ft 452 kts 26°
2026-05-08 13:46 -5.17763 113.86916 34893 ft 452 kts 26°
2026-05-08 13:47 -5.12101 113.89667 34865 ft 452 kts 26°
2026-05-08 13:47 -5.06443 113.92420 34865 ft 452 kts 26°
2026-05-08 13:48 -5.00781 113.95174 34866 ft 455 kts 26°
2026-05-08 13:48 -4.95066 113.98051 34863 ft 463 kts 32°
2026-05-08 13:49 -4.89672 114.01614 34865 ft 465 kts 34°
2026-05-08 13:49 -4.84282 114.05200 34865 ft 465 kts 34°
2026-05-08 13:50 -4.78879 114.08783 34865 ft 465 kts 34°
2026-05-08 13:50 -4.73517 114.12339 34865 ft 465 kts 34°
2026-05-08 13:51 -4.68118 114.15915 34864 ft 465 kts 34°
2026-05-08 13:51 -4.62719 114.19496 34864 ft 465 kts 34°
2026-05-08 13:52 -4.57317 114.23070 34862 ft 465 kts 34°
2026-05-08 13:52 -4.51909 114.26643 34861 ft 465 kts 34°
2026-05-08 13:53 -4.46503 114.30217 34860 ft 466 kts 34°
2026-05-08 13:53 -4.41100 114.33799 34861 ft 466 kts 34°
2026-05-08 13:54 -4.35694 114.37381 34862 ft 466 kts 34°
2026-05-08 13:54 -4.30324 114.40931 34861 ft 466 kts 34°
2026-05-08 13:55 -4.24918 114.44506 34861 ft 466 kts 34°
2026-05-08 13:56 -4.16807 114.49868 34861 ft 466 kts 34°
2026-05-08 13:56 -4.11403 114.53446 34862 ft 466 kts 34°
2026-05-08 13:57 -4.05996 114.57023 34862 ft 466 kts 34°
2026-05-08 13:57 -4.00585 114.60589 34861 ft 466 kts 34°
2026-05-08 13:58 -3.95175 114.64163 34861 ft 466 kts 34°
2026-05-08 13:58 -3.89778 114.67746 34860 ft 466 kts 34°
2026-05-08 13:59 -3.84368 114.71324 34858 ft 466 kts 34°
2026-05-08 13:59 -3.78957 114.74892 34859 ft 466 kts 34°
2026-05-08 14:00 -3.73578 114.78438 34859 ft 466 kts 34°
2026-05-08 14:00 -3.68170 114.82006 34859 ft 466 kts 34°
2026-05-08 14:01 -3.62759 114.85581 34858 ft 466 kts 34°
2026-05-08 14:01 -3.57345 114.89153 34856 ft 466 kts 34°
2026-05-08 14:02 -3.51930 114.92724 34857 ft 466 kts 34°
2026-05-08 14:02 -3.46522 114.96294 34872 ft 465 kts 34°
2026-05-08 14:03 -3.41134 114.99851 34887 ft 463 kts 34°
2026-05-08 14:03 -3.35768 115.03393 34888 ft 461 kts 34°
2026-05-08 14:04 -3.30419 115.06928 34884 ft 460 kts 34°
2026-05-08 14:04 -3.25071 115.10453 34883 ft 460 kts 34°
2026-05-08 14:05 -3.19768 115.13949 34876 ft 459 kts 34°
2026-05-08 14:05 -3.14433 115.17465 34872 ft 459 kts 34°
2026-05-08 14:06 -3.09103 115.20986 34871 ft 459 kts 34°
2026-05-08 14:06 -3.03778 115.24500 34863 ft 459 kts 34°
2026-05-08 14:07 -2.98449 115.28017 34856 ft 459 kts 34°
2026-05-08 14:07 -2.93105 115.31538 34846 ft 460 kts 34°
2026-05-08 14:08 -2.87753 115.35060 34844 ft 461 kts 34°
2026-05-08 14:08 -2.82394 115.38591 34844 ft 462 kts 34°
2026-05-08 14:09 -2.77059 115.42102 34847 ft 462 kts 34°
2026-05-08 14:09 -2.71692 115.45646 34849 ft 462 kts 34°
2026-05-08 14:10 -2.66317 115.49185 34851 ft 463 kts 34°
2026-05-08 14:10 -2.60937 115.52727 34854 ft 463 kts 34°
2026-05-08 14:11 -2.55561 115.56266 34857 ft 463 kts 34°
2026-05-08 14:11 -2.50184 115.59808 34858 ft 463 kts 34°
2026-05-08 14:12 -2.44814 115.63347 34859 ft 462 kts 34°
2026-05-08 14:12 -2.39440 115.66883 34861 ft 462 kts 34°
2026-05-08 14:13 -2.34066 115.70414 34862 ft 462 kts 34°
2026-05-08 14:13 -2.28697 115.73949 34862 ft 462 kts 34°
2026-05-08 14:14 -2.23393 115.77570 34854 ft 461 kts 41°
2026-05-08 14:14 -2.19001 115.82152 34849 ft 460 kts 48°
2026-05-08 14:15 -2.14654 115.86877 34255 ft 463 kts 48°
2026-05-08 14:15 -2.12465 115.89245 33604 ft 463 kts 48°
2026-05-08 14:15 -2.10284 115.91600 32954 ft 460 kts 48°
2026-05-08 14:15 -2.08119 115.93943 32321 ft 457 kts 48°
2026-05-08 14:16 -2.05974 115.96271 31745 ft 453 kts 48°
2026-05-08 14:16 -2.03853 115.98574 31170 ft 449 kts 48°
2026-05-08 14:16 -2.01747 116.00862 30587 ft 445 kts 48°
2026-05-08 14:16 -1.99660 116.03125 30019 ft 442 kts 48°
2026-05-08 14:17 -1.97583 116.05379 29443 ft 438 kts 48°
2026-05-08 14:17 -1.95525 116.07612 28868 ft 435 kts 48°
2026-05-08 14:17 -1.93478 116.09830 28292 ft 433 kts 47°
2026-05-08 14:17 -1.91443 116.12033 27712 ft 430 kts 48°
2026-05-08 14:18 -1.89428 116.14218 27141 ft 427 kts 47°
2026-05-08 14:18 -1.87420 116.16398 26564 ft 424 kts 48°
2026-05-08 14:18 -1.85430 116.18563 25989 ft 421 kts 48°
2026-05-08 14:18 -1.83454 116.20714 25413 ft 419 kts 47°
2026-05-08 14:19 -1.81489 116.22850 24836 ft 416 kts 47°
2026-05-08 14:19 -1.79533 116.24976 24261 ft 414 kts 47°
2026-05-08 14:19 -1.77587 116.27086 23687 ft 412 kts 47°
2026-05-08 14:19 -1.75675 116.29158 23120 ft 410 kts 47°
2026-05-08 14:20 -1.73746 116.31250 22540 ft 408 kts 47°
2026-05-08 14:20 -1.71827 116.33337 21966 ft 407 kts 47°
2026-05-08 14:20 -1.69915 116.35419 21393 ft 406 kts 47°
2026-05-08 14:20 -1.68011 116.37503 20817 ft 405 kts 48°
2026-05-08 14:21 -1.66116 116.39584 20243 ft 404 kts 47°
2026-05-08 14:21 -1.64224 116.41659 19665 ft 403 kts 47°
2026-05-08 14:21 -1.62336 116.43727 19086 ft 402 kts 47°
2026-05-08 14:21 -1.60455 116.45788 18511 ft 401 kts 47°
2026-05-08 14:22 -1.58578 116.47846 17937 ft 400 kts 47°
2026-05-08 14:22 -1.56711 116.49895 17357 ft 398 kts 47°
2026-05-08 14:22 -1.54848 116.51937 16781 ft 397 kts 48°
2026-05-08 14:22 -1.53244 116.53713 16278 ft 395 kts 51°
2026-05-08 14:23 -1.51790 116.56021 15699 ft 393 kts 66°
2026-05-08 14:23 -1.50802 116.58559 15120 ft 391 kts 70°
2026-05-08 14:23 -1.49844 116.61093 14548 ft 389 kts 70°
2026-05-08 14:23 -1.48894 116.63617 13971 ft 387 kts 70°
2026-05-08 14:24 -1.48270 116.65281 13593 ft 386 kts 70°
2026-05-08 14:24 -1.47013 116.68622 12820 ft 383 kts 70°
2026-05-08 14:24 -1.46076 116.71103 12239 ft 380 kts 69°
2026-05-08 14:24 -1.45144 116.73564 11664 ft 377 kts 69°
2026-05-08 14:25 -1.44217 116.76003 11153 ft 373 kts 69°
2026-05-08 14:25 -1.43614 116.77590 11030 ft 364 kts 69°
2026-05-08 14:25 -1.42738 116.79899 10990 ft 346 kts 69°
2026-05-08 14:25 -1.41912 116.82094 11005 ft 332 kts 69°
2026-05-08 14:26 -1.41127 116.84226 11005 ft 319 kts 70°
2026-05-08 14:26 -1.40388 116.86259 11005 ft 304 kts 70°
2026-05-08 14:26 -1.39687 116.88193 11005 ft 289 kts 70°
2026-05-08 14:26 -1.39012 116.90058 10927 ft 285 kts 70°
2026-05-08 14:27 -1.38328 116.91933 10443 ft 289 kts 70°
2026-05-08 14:27 -1.37632 116.93834 9965 ft 293 kts 70°
2026-05-08 14:27 -1.36928 116.95754 9488 ft 295 kts 70°
2026-05-08 14:27 -1.36220 116.97686 9025 ft 297 kts 70°
2026-05-08 14:28 -1.35509 116.99631 8535 ft 299 kts 70°
2026-05-08 14:28 -1.34809 117.01547 8062 ft 293 kts 70°
2026-05-08 14:28 -1.34122 117.03424 7586 ft 283 kts 70°
2026-05-08 14:28 -1.33458 117.05244 7106 ft 275 kts 70°
2026-05-08 14:29 -1.32811 117.07012 6630 ft 267 kts 70°
2026-05-08 14:29 -1.32181 117.08734 6121 ft 261 kts 70°
2026-05-08 14:29 -1.31461 117.10376 5600 ft 256 kts 54°
2026-05-08 14:29 -1.30152 117.11523 5069 ft 251 kts 24°
2026-05-08 14:30 -1.28481 117.11863 4542 ft 246 kts 355°
2026-05-08 14:30 -1.26862 117.11403 4002 ft 241 kts 336°
2026-05-08 14:30 -1.25311 117.10736 3485 ft 246 kts 336°
2026-05-08 14:30 -1.23717 117.10053 2954 ft 252 kts 337°
2026-05-08 14:31 -1.22095 117.09362 2585 ft 251 kts 337°
2026-05-08 14:31 -1.20554 117.08639 2459 ft 239 kts 324°
2026-05-08 14:31 -1.19640 117.07376 2467 ft 219 kts 281°
2026-05-08 14:32 -1.20370 117.04656 2315 ft 201 kts 244°
2026-05-08 14:32 -1.20904 117.03419 2254 ft 186 kts 245°
2026-05-08 14:32 -1.21384 117.02289 2145 ft 167 kts 246°
2026-05-08 14:32 -1.21809 117.01288 2065 ft 152 kts 246°
2026-05-08 14:33 -1.22218 117.00323 2011 ft 147 kts 247°
2026-05-08 14:33 -1.22609 116.99402 1878 ft 145 kts 247°
2026-05-08 14:33 -1.23001 116.98477 1716 ft 144 kts 247°
2026-05-08 14:33 -1.23388 116.97565 1541 ft 141 kts 247°
2026-05-08 14:34 -1.23769 116.96666 1359 ft 140 kts 247°
2026-05-08 14:34 -1.24147 116.95773 1167 ft 139 kts 247°
2026-05-08 14:34 -1.24525 116.94882 990 ft 139 kts 247°
2026-05-08 14:34 -1.24901 116.93995 804 ft 139 kts 247°
2026-05-08 14:35 -1.25279 116.93103 624 ft 139 kts 247°
2026-05-08 14:35 -1.25660 116.92213 428 ft 139 kts 246°
2026-05-08 14:35 -1.26048 116.91327 227 ft 139 kts 247°
2026-05-08 14:35 -1.26418 116.90435 54 ft 138 kts 247°
2026-05-08 14:36 -1.26761 116.89628 23 ft 100 kts 247°
2026-05-08 14:36 -1.26930 116.89229 21 ft 45 kts 247°
2026-05-08 14:36 -1.27016 116.89023 20 ft 16 kts 248°
2026-05-08 14:36 -1.27017 116.88964 19 ft 7 kts 296°
2026-05-08 14:37 -1.26984 116.88939 29 ft 5 kts 337°
2026-05-08 14:37 -1.26941 116.88922 22 ft 9 kts 340°
2026-05-08 14:37 -1.26878 116.88934 21 ft 11 kts 41°
2026-05-08 14:37 -1.26838 116.89009 21 ft 15 kts 67°
2026-05-08 14:38 -1.26794 116.89116 21 ft 18 kts 67°
2026-05-08 14:38 -1.26742 116.89236 21 ft 20 kts 66°
2026-05-08 14:38 -1.26686 116.89369 23 ft 22 kts 67°
2026-05-08 14:38 -1.26628 116.89508 23 ft 20 kts 67°
2026-05-08 14:39 -1.26576 116.89632 21 ft 20 kts 67°
2026-05-08 14:39 -1.26524 116.89755 21 ft 17 kts 67°
2026-05-08 14:39 -1.26476 116.89869 21 ft 18 kts 67°
2026-05-08 14:39 -1.26427 116.89985 21 ft 15 kts 67°
2026-05-08 14:40 -1.26400 116.90041 23 ft 7 kts 52°
2026-05-08 14:40 -1.26358 116.90056 21 ft 6 kts 352°
2026-05-08 14:40 -1.26343 116.90049 23 ft 0 kts 333°
2026-05-08 14:40 -1.26342 116.90049 23 ft 2 kts 333°
2026-05-08 14:41 -1.26315 116.90049 21 ft 6 kts 25°
2026-05-08 14:41 -1.26291 116.90093 21 ft 7 kts 66°
2026-05-08 14:41 -1.26265 116.90106 21 ft 4 kts 349°
2026-05-08 14:41 -1.26239 116.90095 21 ft 4 kts 336°
2026-05-08 14:42 -1.26219 116.90086 22 ft 1 kts 337°